• Processing (Info)

  • MPEC 2014-L59 : 2014 LK26

    The following Minor Planet Electronic Circular may be linked-to from your own Web pages, but must not otherwise be redistributed electronically.

    A form allowing access to any MPEC is at the bottom of this page.


    Read MPEC 2014-L58 Read MPEC 2014-L60


    M.P.E.C. 2014-L59                                Issued 2014 June 15, 14:06 UT
    
         The Minor Planet Electronic Circulars contain information on unusual
             minor planets and routine data on comets.  They are published
       on behalf of Commission 20 of the International Astronomical Union by the
              Minor Planet Center, Smithsonian Astrophysical Observatory,
                              Cambridge, MA 02138, U.S.A.
    
                 Prepared using the Tamkin Foundation Computer Network
    
                                  MPC@CFA.HARVARD.EDU
                URL http://www.minorplanetcenter.net/    ISSN 1523-6714
    
                                       2014 LK26
    
    Observations:
         K14L26K* C2014 06 05.54560 21 34 01.775-07 30 48.60         20.7 wLEL059F51
         K14L26K  C2014 06 05.55753 21 34 03.147-07 30 31.36         20.6 wLEL059F51
         K14L26K  C2014 06 05.56946 21 34 04.516-07 30 14.15         20.6 wLEL059F51
         K14L26K  C2014 06 05.58144 21 34 05.887-07 29 56.66         20.7 wLEL059F51
         K14L26K  C2014 06 07.43595 21 37 43.43 -06 44 55.6          20.4 VqEL059I52
         K14L26K  C2014 06 07.44119 21 37 43.97 -06 44 48.2          20.8 VqEL059I52
         K14L26K  C2014 06 07.44643 21 37 44.61 -06 44 39.9          20.7 VqEL059I52
         K14L26K  C2014 06 07.45167 21 37 45.20 -06 44 32.4          20.6 VqEL059I52
         K14L26K |C2014 06 09.30858 21 41 18.31 -05 58 53.8          20.5 VuEL059807
         K14L26K |C2014 06 09.31410 21 41 18.92 -05 58 45.6          20.5 VuEL059807
         K14L26K |C2014 06 09.31962 21 41 19.53 -05 58 37.4          20.0 VuEL059807
         K14L26K KC2014 06 09.41891 21 41 30.79 -05 56 21.7                oEL059291
         K14L26K KC2014 06 09.42054 21 41 30.97 -05 56 19.2                oEL059291
         K14L26K KC2014 06 09.42216 21 41 31.15 -05 56 16.7          20.2 RoEL059291
         K14L26K |C2014 06 15.29150 21 52 10.18 -03 30 38.7          20.2 VuEL059807
         K14L26K |C2014 06 15.29831 21 52 10.90 -03 30 29.2          20.3 VuEL059807
         K14L26K |C2014 06 15.30532 21 52 11.55 -03 30 18.3          20.5 VuEL059807
    
    Observer details:
    291 LPL/Spacewatch II.  Observer R. S. McMillan.  1.8-m f/2.7 reflector + CCD.
    807 Cerro Tololo.  Observers T. Linder, R. Holmes.  Measurers T. Linder,
        R. Holmes, C. Smith.  0.41-m f/11 Ritchey-Chretien + CCD.
    F51 Pan-STARRS 1, Haleakala.  Observers N. Primak, A. Schultz, T. Goggia,
        M. Willman.  1.8-m Ritchey-Chretien + CCD.
    I52 Steward Observatory, Mt. Lemmon Station.  Observer A. R. Gibbs.  Measurers
        E. J. Christensen, A. R. Gibbs, A. D. Grauer, R. E. Hill, J. A. Johnson,
        R. A. Kowalski, S. M. Larson, R. J. Sanders, F. C. Shelly.  1.0-m
        reflector + CCD.
    
    Orbital elements:
    2014 LK26
    Epoch 2014 May 23.0 TT = JDT 2456800.5                  MPC
    M 354.11012              (2000.0)            P               Q
    n   0.15729758     Peri.   38.52460     +0.50586557     +0.84765479
    a   3.3987668      Node   262.40309     -0.82601880     +0.42257452
    e   0.5591150      Incl.    9.28573     -0.24858190     +0.32079920
    P   6.27           H   18.5           G   0.15           U   7
    Residuals in seconds of arc
    140605 F51  0.0   0.0     140607 I52  0.1-  0.3+    140609 291  0.0   0.2+
    140605 F51  0.0   0.0     140607 I52  0.1-  0.2+    140609 291  0.0   0.3+
    140605 F51  0.0   0.1-    140609 807  0.3+  0.5-    140615 807  0.1-  0.3+
    140605 F51  0.0   0.1+    140609 807  0.4+  0.4-    140615 807  0.4+  0.4-
    140607 I52  0.1-  0.1-    140609 807  0.4+  0.4-    140615 807  0.4-  0.1+
    140607 I52  0.9-  0.3-    140609 291  0.1-  0.1+
    
    Ephemeris:
    2014 LK26                a,e,i = 3.40, 0.56, 9                   q = 1.4985
    Date    TT    R. A. (2000) Decl.     Delta      r     Elong.  Phase     V
    2014 05 16    20 49 12.2 -15 12 15   0.9753  1.5686   104.3    38.6    21.0
    ...
    2014 05 31    21 22 43.5 -09 42 48   0.8597  1.5299   109.2    38.7    20.6
    ...
    2014 06 08    21 38 48.3 -06 31 03   0.8078  1.5153   112.0    38.4    20.5
    ...
    2014 06 14    21 49 53.7 -04 02 55   0.7733  1.5072   114.1    37.9    20.4
    2014 06 15    21 51 39.3 -03 38 01   0.7679  1.5061   114.5    37.9    20.3
    2014 06 16    21 53 23.3 -03 13 06   0.7626  1.5051   114.9    37.8    20.3
    ...
    2014 06 22    22 03 12.3 -00 43 27   0.7329  1.5005   117.2    37.0    20.2
    ...
    2014 06 30    22 14 35.1 +02 33 01   0.6987  1.4985   120.6    35.7    20.1
    ...
    2014 07 15    22 30 00.0 +08 11 48   0.6512  1.5073   128.0    32.1    19.8
    
    A. U. Tomatic                (C) Copyright 2014 MPC           M.P.E.C. 2014-L59
    

    Read MPEC 2014-L58 Read MPEC 2014-L60


    MPEC number:

    Enter an MPEC number in one of the following forms:

    • 1997-B01 (the full form)
    • J97B01 (the packed version of the full form)
    • B01 (the abbreviated form)